Date String (YYYY-MM-DD hh:mm:ss) UTC,Instrument flags,Ambient pressure (hPa),Sample flow (lpm),Bypass flow (lpm),Sample temperature (°C),Ambient temperature (°C),ASC tube jacket temperature (°C),LED temperature (°C),Box temperature (°C),Sample RH (%),Span deviation,Mass concentration (μg/m³),Mass concentration (μg/m³),Mass concentration (μg/m³)
DateTimeUTC,F1_M11,P_M11,Q1_M11,Q2_M11,T1_M11,T2_M11,T3_M11,T4_M11,T5_M11,U1_M11,ZSPAN_M11,X0_M11,X2_M11,X1_M11
2022-07-22 00:00:00,,0826.5,5.00,0.00,29.2,27.1,00.0,37.9,31.0,25.8,0000.0,0013.46,0005.27,0004.04
2022-07-22 00:01:00,,0826.5,5.00,0.00,29.2,27.3,00.0,37.9,31.1,24.8,0000.0,0013.59,0005.25,0004.01
2022-07-22 00:02:00,,0826.5,5.00,0.00,29.2,27.5,00.0,37.9,31.1,25.2,0000.0,0014.35,0005.20,0003.98
2022-07-22 00:03:00,,0826.5,5.00,0.00,29.2,27.7,00.0,38.0,31.2,25.0,0000.0,0014.00,0005.14,0003.95
2022-07-22 00:04:00,,0826.5,5.00,0.00,29.3,27.9,00.0,38.0,31.2,25.0,0000.0,0013.68,0005.09,0003.94
2022-07-22 00:05:00,,0826.5,5.00,0.00,29.3,28.1,00.0,38.0,31.3,24.3,0000.0,0013.56,0005.07,0003.94
2022-07-22 00:06:00,,0826.5,5.00,0.00,29.4,28.1,00.0,38.0,31.4,24.4,0000.0,0013.23,0005.03,0003.93
2022-07-22 00:07:00,,0826.5,4.99,0.00,29.4,27.5,00.0,37.9,31.3,23.7,0000.0,0012.89,0005.05,0003.92
2022-07-22 00:08:00,,0826.6,5.00,0.00,29.3,27.0,00.0,37.9,31.2,23.1,0000.0,0012.88,0005.07,0003.91
2022-07-22 00:09:00,,0826.5,4.99,0.00,29.3,27.0,00.0,37.9,31.1,24.4,0000.0,0012.86,0005.09,0003.91
2022-07-22 00:10:00,,0826.5,5.00,0.00,29.2,27.1,00.0,37.9,31.0,23.5,0000.0,0012.62,0005.12,0003.91
2022-07-22 00:11:00,,0826.5,5.00,0.00,29.2,27.3,00.0,37.9,31.0,24.4,0000.0,0012.68,0005.09,0003.91
2022-07-22 00:12:00,,0826.5,5.00,0.00,29.2,27.4,00.0,37.9,31.1,25.7,0000.0,0012.59,0005.09,0003.92
2022-07-22 00:13:00,,0826.5,5.00,0.00,29.2,27.7,00.0,37.9,31.2,27.7,0000.0,0011.57,0005.14,0003.93
2022-07-22 00:14:00,,0826.5,5.00,0.00,29.3,27.8,00.0,38.0,31.2,25.8,0000.0,0012.00,0005.19,0003.95
2022-07-22 00:15:00,,0826.5,5.01,0.00,29.3,28.0,00.0,38.0,31.3,24.8,0000.0,0011.92,0005.18,0003.95
2022-07-22 00:16:00,,0826.5,4.99,0.00,29.3,28.2,00.0,38.0,31.4,23.7,0000.0,0011.94,0005.19,0003.94
2022-07-22 00:17:00,,0826.5,5.00,0.00,29.4,27.9,00.0,38.0,31.3,23.6,0000.0,0012.35,0005.18,0003.94
2022-07-22 00:18:00,,0826.4,5.01,0.00,29.3,27.2,00.0,37.9,31.2,23.4,0000.0,0011.81,0005.14,0003.96
2022-07-22 00:19:00,,0826.5,4.99,0.00,29.3,26.9,00.0,37.9,31.1,23.7,0000.0,0011.75,0005.13,0003.97
2022-07-22 00:20:00,,0826.5,5.00,0.00,29.2,26.9,00.0,37.9,31.0,26.2,0000.0,0011.85,0005.15,0003.97
2022-07-22 00:21:00,,0826.4,4.99,0.00,29.2,27.0,00.0,37.9,31.0,26.0,0000.0,0011.83,0005.13,0003.98
2022-07-22 00:22:00,,0826.5,4.99,0.00,29.2,27.2,00.0,37.9,31.0,25.2,0000.0,0012.56,0005.15,0003.99
2022-07-22 00:23:00,,0826.5,5.00,0.00,29.2,27.4,00.0,37.9,31.1,23.9,0000.0,0012.89,0005.13,0003.99
2022-07-22 00:24:00,,0826.4,5.00,0.00,29.2,27.7,00.0,37.9,31.2,28.2,0000.0,0013.46,0005.09,0003.99
2022-07-22 00:25:00,,0826.5,5.01,0.00,29.3,27.9,00.0,38.0,31.2,26.5,0000.0,0013.37,0005.10,0004.00
2022-07-22 00:26:00,,0826.4,5.00,0.00,29.3,28.0,00.0,38.0,31.3,27.3,0000.0,0013.24,0005.11,0003.99
2022-07-22 00:27:00,,0826.4,5.00,0.00,29.3,28.2,00.0,38.0,31.3,28.6,0000.0,0013.81,0005.18,0004.01
2022-07-22 00:28:00,,0826.4,5.00,0.00,29.4,28.1,00.0,38.0,31.4,27.6,0000.0,0014.02,0005.26,0004.02
2022-07-22 00:29:00,,0826.5,5.01,0.00,29.4,27.4,00.0,37.9,31.3,27.4,0000.0,0014.10,0005.34,0004.03
2022-07-22 00:30:00,,0826.4,4.99,0.00,29.3,27.0,00.0,37.9,31.2,25.7,0000.0,0014.47,0005.38,0004.04
2022-07-22 00:31:00,,0826.4,5.01,0.00,29.3,27.0,00.0,37.9,31.1,26.4,0000.0,0014.51,0005.40,0004.05
2022-07-22 00:32:00,,0826.4,4.99,0.00,29.2,27.1,00.0,37.9,31.0,30.8,0000.0,0014.62,0005.46,0004.05
2022-07-22 00:33:00,,0826.5,5.00,0.00,29.2,27.3,00.0,37.9,31.1,27.5,0000.0,0015.41,0005.53,0004.06
2022-07-22 00:34:00,,0826.4,5.01,0.00,29.2,27.5,00.0,37.9,31.1,25.8,0000.0,0015.86,0005.58,0004.07
2022-07-22 00:35:00,,0826.5,4.99,0.00,29.2,27.7,00.0,37.9,31.2,26.1,0000.0,0015.89,0005.58,0004.07
2022-07-22 00:36:00,,0826.5,5.01,0.00,29.3,27.9,00.0,38.0,31.2,24.6,0000.0,0015.79,0005.57,0004.06
2022-07-22 00:37:00,,0826.5,5.01,0.00,29.3,28.1,00.0,38.0,31.3,24.9,0000.0,0016.06,0005.59,0004.05
2022-07-22 00:38:00,,0826.5,4.99,0.00,29.4,28.2,00.0,38.0,31.4,23.0,0000.0,0015.30,0005.53,0004.03
2022-07-22 00:39:00,,0826.5,5.01,0.00,29.4,27.9,00.0,38.0,31.4,23.3,0000.0,0015.10,0005.48,0004.01
2022-07-22 00:40:00,,0826.4,5.01,0.00,29.4,27.2,00.0,37.9,31.2,23.1,0000.0,0015.15,0005.40,0003.99
2022-07-22 00:41:00,,0826.4,4.99,0.00,29.3,27.0,00.0,37.9,31.2,22.2,0000.0,0015.90,0005.35,0003.97
2022-07-22 00:42:00,,0826.4,5.01,0.00,29.3,27.0,00.0,37.9,31.1,22.3,0000.0,0015.92,0005.30,0003.96
2022-07-22 00:43:00,,0826.4,5.00,0.00,29.2,27.2,00.0,37.9,31.0,21.8,0000.0,0016.09,0005.25,0003.94
2022-07-22 00:44:00,,0826.4,4.99,0.00,29.2,27.4,00.0,37.9,31.1,22.4,0000.0,0014.76,0005.18,0003.91
2022-07-22 00:45:00,,0826.5,5.01,0.00,29.2,27.6,00.0,38.0,31.1,22.8,0000.0,0013.53,0005.15,0003.90
2022-07-22 00:46:00,,0826.5,5.00,0.00,29.3,27.8,00.0,38.0,31.2,22.4,0000.0,0012.69,0005.14,0003.89
2022-07-22 00:47:00,,0826.5,5.00,0.00,29.3,28.0,00.0,38.0,31.3,22.8,0000.0,0012.47,0005.06,0003.87
2022-07-22 00:48:00,,0826.5,4.99,0.00,29.3,28.2,00.0,38.0,31.4,23.4,0000.0,0012.43,0005.04,0003.87
2022-07-22 00:49:00,,0826.5,5.01,0.00,29.4,28.2,00.0,38.0,31.4,23.0,0000.0,0012.39,0005.05,0003.86
2022-07-22 00:50:00,,0826.4,5.00,0.00,29.4,27.7,00.0,38.0,31.4,21.6,0000.0,0011.93,0005.03,0003.86
2022-07-22 00:51:00,,0826.5,5.01,0.00,29.4,27.2,00.0,37.9,31.3,22.3,0000.0,0012.46,0005.02,0003.87
2022-07-22 00:52:00,,0826.4,5.01,0.00,29.3,27.1,00.0,37.9,31.2,23.4,0000.0,0011.74,0005.01,0003.86
2022-07-22 00:53:00,,0826.5,5.00,0.00,29.3,27.2,00.0,37.9,31.1,23.9,0000.0,0012.02,0005.05,0003.87
2022-07-22 00:54:00,,0826.5,5.00,0.00,29.3,27.3,00.0,38.0,31.1,22.0,0000.0,0012.32,0005.08,0003.89
2022-07-22 00:55:00,,0826.5,5.00,0.00,29.3,27.5,00.0,38.0,31.2,21.9,0000.0,0012.67,0005.08,0003.90
2022-07-22 00:56:00,,0826.4,5.00,0.00,29.3,27.7,00.0,38.0,31.2,21.8,0000.0,0012.60,0005.06,0003.92
2022-07-22 00:57:00,,0826.5,5.00,0.00,29.3,27.9,00.0,38.0,31.3,22.2,0000.0,0012.71,0005.04,0003.91
2022-07-22 00:58:00,,0826.5,5.00,0.00,29.3,28.1,00.0,38.0,31.4,21.6,0000.0,0012.79,0005.05,0003.92
2022-07-22 00:59:00,,0826.5,4.99,0.00,29.4,28.3,00.0,38.1,31.4,21.7,0000.0,0012.60,0005.02,0003.92
